GEFSCGP_prec_meanprec_090.txt.gz
QPF
0.00 0.00 0.00 0.00 0.00 0.00 0.00 0.00 0.00 0.00 0.00 0.00 0.00 0.00 0.00 0.00 0.00 0.01 0.02 0.03 0.04 0.07 0.09 0.08 0.09 0.10 0.14 0.14 0.15 0.19 0.22 0.18 0.14 0.12 0.11 0.10 0.08 0.03 0.01 0.00 0.00 0.00 0.00 0.00
0.00 0.00 0.00 0.00 0.00 0.00 0.00 0.00 0.00 0.00 0.00 0.00 0.00 0.00 0.00 0.00 0.00 0.00 0.01 0.02 0.03 0.04 0.07 0.08 0.08 0.08 0.11 0.12 0.15 0.16 0.19 0.19 0.15 0.13 0.13 0.10 0.07 0.03 0.01 0.00 0.00 0.00 0.00 0.00
0.00 0.00 0.00 0.00 0.00 0.00 0.00 0.00 0.00 0.00 0.00 0.00 0.01 0.01 0.00 0.00 0.00 0.00 0.00 0.00 0.01 0.02 0.06 0.09 0.10 0.10 0.11 0.13 0.13 0.12 0.15 0.17 0.15 0.14 0.10 0.08 0.07 0.05 0.02 0.02 0.01 0.00 0.00 0.00
0.00 0.00 0.00 0.00 0.00 0.00 0.00 0.00 0.00 0.00 0.00 0.01 0.01 0.02 0.01 0.00 0.01 0.01 0.00 0.00 0.01 0.02 0.05 0.09 0.09 0.09 0.10 0.10 0.11 0.15 0.18 0.15 0.12 0.11 0.10 0.07 0.05 0.05 0.04 0.02 0.01 0.01 0.00 0.00
0.00 0.00 0.00 0.00 0.00 0.00 0.00 0.00 0.00 0.00 0.01 0.02 0.05 0.05 0.01 0.01 0.01 0.00 0.00 0.00 0.01 0.02 0.04 0.07 0.08 0.08 0.08 0.09 0.12 0.15 0.17 0.16 0.10 0.10 0.10 0.08 0.05 0.03 0.03 0.02 0.02 0.01 0.01 0.00
0.00 0.00 0.00 0.00 0.00 0.00 0.00 0.00 0.00 0.00 0.02 0.08 0.08 0.05 0.03 0.03 0.01 0.00 0.00 0.01 0.01 0.01 0.02 0.03 0.06 0.08 0.08 0.08 0.12 0.14 0.13 0.13 0.10 0.09 0.07 0.06 0.05 0.04 0.04 0.03 0.03 0.01 0.01 0.00
0.00 0.00 0.00 0.00 0.00 0.00 0.00 0.00 0.01 0.03 0.07 0.09 0.04 0.02 0.02 0.02 0.01 0.00 0.00 0.00 0.01 0.01 0.01 0.02 0.04 0.08 0.08 0.06 0.07 0.10 0.09 0.11 0.10 0.09 0.05 0.04 0.05 0.04 0.03 0.02 0.02 0.01 0.00 0.00
0.00 0.01 0.01 0.01 0.00 0.00 0.00 0.00 0.01 0.02 0.02 0.02 0.02 0.01 0.01 0.00 0.00 0.00 0.00 0.00 0.00 0.00 0.00 0.01 0.02 0.06 0.07 0.06 0.06 0.06 0.06 0.08 0.09 0.06 0.05 0.05 0.04 0.02 0.01 0.01 0.01 0.01 0.00 0.00
0.00 0.01 0.01 0.01 0.00 0.00 0.00 0.00 0.00 0.00 0.00 0.01 0.03 0.03 0.03 0.01 0.00 0.00 0.00 0.00 0.00 0.00 0.00 0.00 0.01 0.04 0.06 0.05 0.05 0.05 0.07 0.07 0.07 0.05 0.04 0.04 0.03 0.02 0.02 0.02 0.01 0.00 0.00 0.00
0.00 0.00 0.01 0.00 0.00 0.00 0.00 0.00 0.00 0.00 0.01 0.02 0.04 0.07 0.09 0.03 0.01 0.01 0.00 0.00 0.00 0.00 0.00 0.00 0.00 0.01 0.02 0.03 0.05 0.05 0.05 0.07 0.07 0.05 0.03 0.02 0.02 0.02 0.02 0.02 0.01 0.00 0.00 0.00
0.00 0.00 0.00 0.00 0.00 0.00 0.00 0.00 0.00 0.00 0.00 0.01 0.04 0.07 0.05 0.02 0.02 0.02 0.01 0.00 0.00 0.00 0.00 0.00 0.00 0.00 0.01 0.02 0.03 0.03 0.03 0.06 0.06 0.04 0.03 0.03 0.02 0.01 0.02 0.01 0.01 0.01 0.01 0.00
0.00 0.00 0.00 0.01 0.01 0.01 0.01 0.01 0.01 0.01 0.01 0.01 0.03 0.04 0.03 0.03 0.03 0.02 0.01 0.00 0.00 0.01 0.00 0.00 0.00 0.00 0.01 0.02 0.02 0.02 0.02 0.05 0.03 0.02 0.02 0.03 0.02 0.02 0.02 0.01 0.01 0.01 0.01 0.01
0.00 0.00 0.00 0.02 0.05 0.05 0.03 0.01 0.01 0.01 0.01 0.01 0.03 0.03 0.02 0.02 0.02 0.01 0.01 0.00 0.00 0.00 0.00 0.00 0.00 0.00 0.00 0.00 0.01 0.01 0.01 0.02 0.02 0.01 0.02 0.02 0.02 0.02 0.02 0.02 0.02 0.01 0.01 0.01
0.00 0.00 0.01 0.03 0.07 0.09 0.06 0.02 0.01 0.01 0.01 0.01 0.02 0.04 0.05 0.06 0.04 0.03 0.01 0.00 0.00 0.00 0.00 0.00 0.00 0.00 0.00 0.00 0.00 0.00 0.01 0.01 0.01 0.01 0.03 0.02 0.02 0.02 0.02 0.01 0.01 0.01 0.01 0.01
0.00 0.00 0.00 0.00 0.02 0.03 0.03 0.02 0.02 0.01 0.01 0.01 0.02 0.05 0.08 0.15 0.08 0.03 0.01 0.00 0.00 0.00 0.00 0.00 0.00 0.01 0.01 0.00 0.00 0.00 0.00 0.00 0.01 0.02 0.03 0.03 0.03 0.03 0.03 0.03 0.03 0.02 0.02 0.02
0.00 0.00 0.00 0.00 0.01 0.02 0.02 0.01 0.01 0.01 0.00 0.00 0.02 0.07 0.10 0.10 0.06 0.03 0.02 0.01 0.00 0.00 0.00 0.01 0.00 0.00 0.01 0.01 0.01 0.01 0.01 0.01 0.02 0.04 0.04 0.05 0.06 0.06 0.06 0.06 0.05 0.05 0.04 0.03
0.02 0.01 0.01 0.01 0.02 0.01 0.01 0.01 0.01 0.00 0.00 0.00 0.02 0.05 0.05 0.05 0.04 0.04 0.02 0.01 0.00 0.00 0.01 0.01 0.01 0.01 0.02 0.02 0.02 0.01 0.01 0.03 0.04 0.06 0.07 0.09 0.11 0.12 0.11 0.10 0.08 0.06 0.05 0.04
0.06 0.02 0.01 0.02 0.04 0.04 0.02 0.01 0.01 0.00 0.00 0.01 0.01 0.01 0.01 0.02 0.01 0.01 0.00 0.00 0.00 0.01 0.01 0.02 0.02 0.02 0.02 0.04 0.04 0.04 0.05 0.07 0.10 0.11 0.11 0.15 0.18 0.19 0.18 0.16 0.11 0.09 0.08 0.07
0.06 0.03 0.02 0.03 0.05 0.04 0.05 0.04 0.02 0.01 0.02 0.02 0.02 0.01 0.01 0.00 0.01 0.02 0.02 0.01 0.00 0.00 0.01 0.02 0.03 0.05 0.05 0.05 0.08 0.10 0.11 0.14 0.17 0.18 0.16 0.19 0.25 0.29 0.27 0.21 0.16 0.13 0.10 0.08
0.08 0.04 0.03 0.02 0.05 0.07 0.07 0.09 0.06 0.04 0.07 0.03 0.01 0.01 0.02 0.06 0.12 0.11 0.05 0.02 0.01 0.01 0.01 0.01 0.02 0.03 0.05 0.07 0.07 0.08 0.12 0.16 0.22 0.24 0.20 0.21 0.25 0.29 0.28 0.22 0.18 0.17 0.15 0.11
0.06 0.06 0.03 0.03 0.06 0.05 0.05 0.05 0.05 0.07 0.09 0.03 0.04 0.06 0.05 0.11 0.12 0.08 0.03 0.02 0.01 0.01 0.00 0.01 0.01 0.01 0.02 0.03 0.05 0.06 0.09 0.12 0.14 0.19 0.21 0.22 0.24 0.24 0.22 0.22 0.21 0.18 0.16 0.14
0.11 0.07 0.06 0.05 0.09 0.09 0.06 0.05 0.06 0.11 0.05 0.03 0.02 0.03 0.02 0.03 0.03 0.02 0.01 0.01 0.01 0.01 0.01 0.01 0.02 0.02 0.04 0.04 0.04 0.05 0.06 0.07 0.07 0.08 0.10 0.12 0.15 0.15 0.13 0.13 0.13 0.11 0.09 0.09
0.20 0.13 0.10 0.08 0.11 0.09 0.04 0.04 0.04 0.02 0.01 0.01 0.01 0.00 0.01 0.02 0.01 0.01 0.01 0.01 0.01 0.01 0.01 0.01 0.01 0.02 0.04 0.05 0.06 0.07 0.09 0.09 0.09 0.08 0.07 0.07 0.09 0.12 0.10 0.09 0.08 0.08 0.07 0.06
0.24 0.13 0.08 0.08 0.10 0.08 0.05 0.04 0.02 0.01 0.02 0.00 0.01 0.01 0.02 0.01 0.01 0.02 0.01 0.01 0.01 0.01 0.00 0.00 0.01 0.01 0.01 0.02 0.03 0.04 0.05 0.06 0.07 0.08 0.09 0.09 0.07 0.07 0.06 0.06 0.06 0.06 0.05 0.05
0.09 0.07 0.07 0.10 0.10 0.08 0.08 0.08 0.06 0.02 0.01 0.01 0.01 0.02 0.03 0.03 0.02 0.03 0.02 0.02 0.01 0.01 0.00 0.00 0.01 0.00 0.00 0.00 0.01 0.01 0.02 0.02 0.03 0.05 0.05 0.05 0.05 0.04 0.04 0.04 0.03 0.03 0.02 0.02
0.03 0.02 0.03 0.09 0.07 0.06 0.08 0.07 0.04 0.02 0.02 0.01 0.01 0.02 0.02 0.03 0.03 0.05 0.04 0.03 0.02 0.01 0.01 0.01 0.01 0.01 0.01 0.01 0.01 0.02 0.03 0.04 0.05 0.06 0.06 0.05 0.04 0.03 0.03 0.02 0.02 0.01 0.01 0.00

GEFSCGP_prec_meanprec_096.txt.gz
QPF
0.00 0.00 0.00 0.00 0.00 0.00 0.00 0.01 0.01 0.01 0.01 0.01 0.01 0.01 0.02 0.04 0.04 0.03 0.03 0.03 0.05 0.06 0.09 0.13 0.30 0.39 0.30 0.29 0.27 0.24 0.21 0.16 0.12 0.08 0.05 0.04 0.05 0.05 0.02 0.00 0.00 0.00 0.00 0.00
0.00 0.00 0.00 0.00 0.00 0.00 0.00 0.00 0.01 0.01 0.00 0.01 0.01 0.02 0.03 0.04 0.03 0.02 0.02 0.03 0.03 0.04 0.07 0.09 0.20 0.36 0.24 0.18 0.17 0.19 0.17 0.17 0.13 0.09 0.05 0.04 0.05 0.04 0.01 0.00 0.00 0.00 0.00 0.00
0.00 0.00 0.00 0.00 0.00 0.00 0.00 0.01 0.00 0.01 0.01 0.01 0.01 0.03 0.04 0.03 0.02 0.02 0.02 0.02 0.02 0.02 0.04 0.09 0.19 0.25 0.23 0.18 0.14 0.13 0.12 0.11 0.12 0.11 0.08 0.07 0.05 0.03 0.02 0.01 0.00 0.00 0.00 0.00
0.00 0.00 0.00 0.00 0.00 0.00 0.00 0.00 0.00 0.00 0.01 0.02 0.02 0.04 0.04 0.04 0.04 0.02 0.02 0.02 0.02 0.02 0.03 0.06 0.16 0.18 0.19 0.22 0.21 0.18 0.15 0.13 0.11 0.10 0.08 0.06 0.05 0.03 0.03 0.01 0.00 0.00 0.00 0.00
0.00 0.00 0.00 0.00 0.00 0.00 0.01 0.00 0.00 0.01 0.02 0.04 0.04 0.07 0.08 0.07 0.07 0.04 0.02 0.01 0.01 0.01 0.02 0.04 0.09 0.11 0.12 0.16 0.18 0.17 0.16 0.15 0.13 0.09 0.09 0.08 0.05 0.03 0.03 0.03 0.01 0.00 0.00 0.00
0.00 0.00 0.00 0.00 0.00 0.00 0.00 0.00 0.00 0.02 0.03 0.07 0.06 0.08 0.10 0.08 0.08 0.04 0.01 0.02 0.02 0.01 0.01 0.02 0.05 0.08 0.09 0.10 0.12 0.14 0.12 0.12 0.13 0.10 0.09 0.09 0.07 0.04 0.03 0.03 0.02 0.01 0.00 0.00
0.00 0.00 0.00 0.00 0.00 0.00 0.01 0.00 0.01 0.01 0.04 0.07 0.05 0.09 0.15 0.08 0.05 0.03 0.02 0.02 0.01 0.01 0.01 0.02 0.04 0.09 0.13 0.11 0.10 0.14 0.13 0.09 0.09 0.08 0.06 0.06 0.08 0.06 0.03 0.02 0.01 0.00 0.00 0.00
0.00 0.00 0.00 0.00 0.00 0.00 0.01 0.01 0.01 0.02 0.03 0.04 0.06 0.13 0.16 0.06 0.03 0.02 0.02 0.02 0.01 0.01 0.01 0.01 0.02 0.04 0.07 0.06 0.07 0.11 0.14 0.11 0.07 0.06 0.05 0.04 0.06 0.05 0.04 0.03 0.01 0.00 0.00 0.00
0.00 0.00 0.00 0.01 0.01 0.01 0.01 0.01 0.01 0.01 0.02 0.05 0.10 0.13 0.16 0.06 0.02 0.01 0.01 0.01 0.01 0.01 0.01 0.01 0.01 0.02 0.03 0.04 0.06 0.08 0.09 0.09 0.07 0.07 0.05 0.03 0.04 0.03 0.02 0.02 0.01 0.01 0.00 0.00
0.00 0.00 0.00 0.00 0.01 0.01 0.01 0.02 0.02 0.02 0.02 0.06 0.10 0.10 0.12 0.07 0.04 0.02 0.03 0.04 0.02 0.00 0.00 0.00 0.01 0.01 0.02 0.03 0.05 0.06 0.06 0.06 0.06 0.06 0.05 0.03 0.02 0.02 0.02 0.01 0.01 0.00 0.00 0.00
0.00 0.00 0.00 0.00 0.01 0.01 0.02 0.03 0.03 0.03 0.02 0.04 0.08 0.07 0.05 0.07 0.07 0.06 0.06 0.04 0.01 0.01 0.01 0.02 0.00 0.00 0.01 0.02 0.04 0.04 0.04 0.04 0.05 0.06 0.05 0.03 0.02 0.02 0.02 0.01 0.00 0.00 0.00 0.00
0.01 0.01 0.01 0.01 0.01 0.02 0.03 0.04 0.04 0.04 0.04 0.04 0.06 0.07 0.06 0.07 0.10 0.08 0.07 0.05 0.01 0.01 0.01 0.00 0.00 0.00 0.01 0.01 0.02 0.03 0.04 0.05 0.05 0.05 0.05 0.04 0.03 0.03 0.03 0.02 0.01 0.00 0.00 0.01
0.01 0.01 0.01 0.01 0.02 0.03 0.03 0.03 0.05 0.05 0.04 0.04 0.06 0.08 0.07 0.06 0.10 0.08 0.09 0.06 0.02 0.01 0.01 0.01 0.01 0.01 0.03 0.03 0.03 0.04 0.05 0.06 0.05 0.05 0.04 0.03 0.03 0.02 0.03 0.02 0.02 0.01 0.01 0.01
0.01 0.01 0.02 0.03 0.02 0.03 0.03 0.02 0.03 0.04 0.03 0.03 0.04 0.06 0.09 0.08 0.10 0.10 0.11 0.09 0.07 0.04 0.02 0.02 0.03 0.03 0.05 0.06 0.06 0.05 0.04 0.04 0.04 0.05 0.05 0.04 0.03 0.03 0.02 0.03 0.03 0.04 0.04 0.03
0.02 0.02 0.02 0.03 0.03 0.03 0.03 0.02 0.02 0.02 0.01 0.02 0.03 0.05 0.06 0.08 0.08 0.08 0.11 0.09 0.09 0.06 0.04 0.04 0.05 0.05 0.06 0.09 0.10 0.08 0.07 0.07 0.08 0.09 0.09 0.08 0.08 0.08 0.08 0.07 0.07 0.08 0.08 0.07
0.04 0.03 0.03 0.02 0.03 0.04 0.03 0.02 0.02 0.02 0.02 0.02 0.03 0.05 0.06 0.07 0.08 0.08 0.09 0.10 0.08 0.07 0.06 0.07 0.08 0.07 0.08 0.10 0.13 0.15 0.14 0.15 0.19 0.20 0.22 0.25 0.29 0.30 0.25 0.21 0.20 0.19 0.17 0.14
0.06 0.06 0.05 0.04 0.05 0.05 0.04 0.04 0.03 0.03 0.03 0.02 0.04 0.07 0.06 0.07 0.09 0.15 0.14 0.09 0.08 0.08 0.09 0.11 0.15 0.15 0.14 0.14 0.16 0.19 0.23 0.28 0.33 0.37 0.40 0.43 0.45 0.48 0.47 0.44 0.39 0.33 0.32 0.29
0.09 0.11 0.09 0.06 0.06 0.07 0.05 0.06 0.06 0.05 0.05 0.04 0.05 0.09 0.11 0.15 0.11 0.10 0.08 0.07 0.07 0.08 0.10 0.12 0.18 0.19 0.17 0.19 0.23 0.24 0.26 0.31 0.38 0.46 0.55 0.60 0.57 0.57 0.56 0.54 0.47 0.43 0.44 0.41
0.07 0.11 0.13 0.11 0.09 0.07 0.06 0.07 0.08 0.10 0.12 0.09 0.11 0.13 0.16 0.18 0.12 0.08 0.06 0.05 0.04 0.05 0.06 0.08 0.12 0.16 0.23 0.20 0.20 0.23 0.20 0.23 0.34 0.42 0.44 0.41 0.41 0.46 0.52 0.51 0.49 0.49 0.46 0.38
0.08 0.09 0.15 0.14 0.13 0.12 0.10 0.09 0.07 0.08 0.16 0.15 0.12 0.16 0.22 0.18 0.12 0.09 0.07 0.05 0.04 0.04 0.05 0.05 0.06 0.09 0.13 0.18 0.20 0.18 0.17 0.22 0.29 0.34 0.36 0.30 0.28 0.32 0.41 0.46 0.43 0.39 0.37 0.37
0.16 0.15 0.15 0.18 0.18 0.16 0.12 0.09 0.08 0.11 0.16 0.16 0.15 0.16 0.17 0.14 0.10 0.08 0.06 0.04 0.03 0.02 0.02 0.03 0.04 0.05 0.07 0.09 0.11 0.14 0.18 0.20 0.21 0.22 0.27 0.29 0.28 0.26 0.30 0.33 0.32 0.32 0.32 0.32
0.21 0.23 0.20 0.18 0.21 0.22 0.14 0.09 0.11 0.13 0.14 0.19 0.20 0.17 0.14 0.13 0.10 0.07 0.05 0.03 0.02 0.02 0.01 0.01 0.02 0.03 0.04 0.04 0.04 0.06 0.08 0.10 0.12 0.13 0.14 0.15 0.16 0.19 0.23 0.22 0.22 0.24 0.23 0.21
0.21 0.22 0.23 0.26 0.26 0.21 0.18 0.17 0.19 0.17 0.12 0.14 0.13 0.11 0.10 0.08 0.07 0.05 0.05 0.03 0.02 0.01 0.01 0.01 0.01 0.01 0.01 0.01 0.01 0.02 0.03 0.04 0.06 0.06 0.07 0.07 0.07 0.09 0.12 0.13 0.14 0.14 0.12 0.11
0.22 0.21 0.26 0.33 0.33 0.30 0.27 0.23 0.21 0.19 0.15 0.13 0.10 0.09 0.08 0.07 0.05 0.05 0.04 0.02 0.01 0.01 0.00 0.00 0.00 0.00 0.00 0.00 0.00 0.00 0.01 0.01 0.02 0.03 0.05 0.06 0.07 0.07 0.07 0.07 0.06 0.06 0.06 0.05
0.27 0.24 0.25 0.32 0.40 0.31 0.22 0.21 0.18 0.16 0.15 0.13 0.11 0.08 0.05 0.06 0.08 0.08 0.06 0.03 0.02 0.01 0.00 0.00 0.00 0.00 0.00 0.00 0.00 0.00 0.00 0.00 0.00 0.00 0.01 0.01 0.02 0.03 0.03 0.03 0.03 0.04 0.04 0.03
0.23 0.27 0.22 0.22 0.24 0.25 0.22 0.19 0.16 0.12 0.09 0.10 0.09 0.07 0.05 0.05 0.07 0.08 0.06 0.03 0.02 0.01 0.00 0.00 0.00 0.00 0.00 0.00 0.00 0.00 0.00 0.00 0.00 0.00 0.00 0.00 0.00 0.01 0.01 0.01 0.01 0.02 0.02 0.02

GEFSCGP_prec_meanprec_102.txt.gz
QPF
0.00 0.00 0.00 0.00 0.00 0.00 0.00 0.00 0.00 0.00 0.00 0.00 0.00 0.00 0.00 0.01 0.01 0.02 0.02 0.02 0.03 0.04 0.08 0.13 0.15 0.22 0.34 0.43 0.35 0.27 0.25 0.21 0.16 0.11 0.08 0.06 0.05 0.05 0.03 0.01 0.00 0.00 0.00 0.00
0.00 0.00 0.00 0.00 0.00 0.00 0.00 0.00 0.00 0.00 0.00 0.00 0.00 0.00 0.00 0.00 0.01 0.01 0.02 0.02 0.03 0.05 0.07 0.09 0.12 0.17 0.26 0.38 0.37 0.34 0.27 0.21 0.16 0.12 0.10 0.10 0.08 0.06 0.04 0.01 0.01 0.00 0.00 0.00
0.00 0.00 0.00 0.00 0.00 0.00 0.00 0.00 0.00 0.00 0.00 0.00 0.00 0.00 0.00 0.01 0.01 0.01 0.02 0.02 0.02 0.04 0.04 0.05 0.08 0.16 0.26 0.29 0.31 0.33 0.35 0.26 0.19 0.16 0.13 0.12 0.10 0.06 0.04 0.02 0.01 0.01 0.00 0.00
0.00 0.00 0.00 0.00 0.00 0.00 0.00 0.00 0.00 0.00 0.00 0.01 0.01 0.00 0.00 0.01 0.01 0.01 0.01 0.01 0.01 0.02 0.02 0.03 0.05 0.10 0.20 0.21 0.21 0.22 0.25 0.25 0.20 0.17 0.16 0.11 0.08 0.07 0.05 0.04 0.03 0.01 0.01 0.00
0.00 0.00 0.00 0.00 0.00 0.00 0.00 0.00 0.00 0.00 0.00 0.00 0.00 0.00 0.00 0.00 0.00 0.00 0.00 0.00 0.01 0.01 0.01 0.01 0.03 0.06 0.14 0.14 0.14 0.17 0.19 0.20 0.18 0.15 0.12 0.10 0.06 0.04 0.05 0.05 0.04 0.02 0.01 0.00
0.00 0.00 0.00 0.00 0.00 0.00 0.00 0.00 0.00 0.00 0.00 0.00 0.00 0.00 0.00 0.00 0.00 0.00 0.00 0.00 0.00 0.01 0.01 0.02 0.02 0.04 0.12 0.10 0.10 0.13 0.13 0.13 0.15 0.12 0.09 0.06 0.04 0.04 0.05 0.05 0.03 0.02 0.01 0.00
0.00 0.00 0.00 0.00 0.00 0.00 0.00 0.00 0.00 0.00 0.00 0.00 0.00 0.00 0.01 0.00 0.00 0.00 0.00 0.00 0.00 0.01 0.01 0.01 0.02 0.03 0.09 0.07 0.08 0.10 0.11 0.11 0.12 0.10 0.07 0.05 0.04 0.04 0.05 0.05 0.04 0.02 0.01 0.00
0.00 0.00 0.00 0.00 0.00 0.00 0.00 0.00 0.00 0.00 0.00 0.00 0.00 0.00 0.00 0.00 0.00 0.00 0.00 0.00 0.00 0.00 0.00 0.01 0.02 0.03 0.07 0.05 0.06 0.09 0.11 0.10 0.09 0.09 0.07 0.07 0.06 0.04 0.04 0.05 0.04 0.02 0.01 0.00
0.00 0.00 0.00 0.00 0.00 0.00 0.00 0.00 0.01 0.01 0.01 0.00 0.00 0.00 0.00 0.00 0.01 0.00 0.00 0.00 0.00 0.00 0.00 0.00 0.01 0.03 0.04 0.04 0.04 0.06 0.08 0.08 0.08 0.07 0.07 0.07 0.07 0.05 0.04 0.05 0.04 0.03 0.02 0.01
0.00 0.00 0.00 0.00 0.00 0.00 0.00 0.01 0.01 0.02 0.01 0.01 0.00 0.00 0.00 0.01 0.00 0.00 0.00 0.00 0.00 0.00 0.00 0.00 0.01 0.02 0.03 0.03 0.05 0.07 0.08 0.09 0.09 0.07 0.06 0.06 0.05 0.05 0.04 0.04 0.05 0.05 0.03 0.01
0.00 0.00 0.00 0.00 0.00 0.00 0.01 0.01 0.01 0.01 0.01 0.01 0.01 0.00 0.01 0.01 0.00 0.00 0.00 0.00 0.00 0.00 0.01 0.01 0.01 0.01 0.02 0.03 0.05 0.06 0.09 0.10 0.09 0.07 0.07 0.06 0.05 0.05 0.04 0.05 0.05 0.05 0.04 0.02
0.00 0.00 0.00 0.00 0.00 0.00 0.00 0.00 0.01 0.01 0.01 0.01 0.01 0.01 0.00 0.00 0.00 0.00 0.00 0.01 0.01 0.01 0.01 0.01 0.01 0.01 0.02 0.02 0.03 0.04 0.07 0.08 0.07 0.07 0.07 0.06 0.05 0.04 0.04 0.05 0.05 0.05 0.05 0.03
0.00 0.00 0.01 0.00 0.00 0.00 0.00 0.00 0.01 0.00 0.00 0.01 0.01 0.01 0.00 0.00 0.00 0.00 0.01 0.01 0.01 0.01 0.01 0.01 0.01 0.02 0.02 0.03 0.04 0.06 0.07 0.07 0.07 0.08 0.07 0.07 0.05 0.04 0.04 0.05 0.06 0.05 0.04 0.03
0.00 0.01 0.00 0.01 0.00 0.01 0.00 0.01 0.01 0.00 0.00 0.00 0.00 0.00 0.00 0.00 0.00 0.01 0.01 0.01 0.01 0.01 0.01 0.01 0.01 0.02 0.03 0.03 0.04 0.07 0.10 0.08 0.08 0.09 0.08 0.07 0.07 0.08 0.07 0.06 0.06 0.05 0.04 0.04
0.00 0.00 0.00 0.00 0.00 0.00 0.01 0.01 0.01 0.01 0.01 0.01 0.00 0.01 0.01 0.00 0.00 0.01 0.01 0.01 0.01 0.01 0.01 0.02 0.01 0.02 0.02 0.02 0.03 0.06 0.09 0.10 0.10 0.10 0.09 0.09 0.09 0.09 0.10 0.08 0.07 0.08 0.08 0.08
0.00 0.00 0.00 0.00 0.00 0.00 0.00 0.00 0.01 0.01 0.01 0.01 0.00 0.01 0.01 0.01 0.01 0.01 0.01 0.01 0.02 0.01 0.01 0.02 0.02 0.02 0.03 0.02 0.03 0.03 0.05 0.09 0.10 0.12 0.13 0.11 0.11 0.12 0.11 0.11 0.13 0.12 0.13 0.14
0.00 0.00 0.00 0.00 0.00 0.00 0.00 0.00 0.01 0.01 0.01 0.01 0.01 0.01 0.01 0.01 0.01 0.02 0.01 0.01 0.01 0.01 0.02 0.03 0.04 0.04 0.05 0.05 0.07 0.08 0.08 0.08 0.09 0.12 0.15 0.15 0.13 0.15 0.16 0.15 0.15 0.14 0.15 0.18
0.00 0.00 0.01 0.01 0.01 0.01 0.01 0.01 0.01 0.01 0.01 0.01 0.01 0.01 0.01 0.02 0.03 0.04 0.04 0.03 0.03 0.03 0.03 0.04 0.05 0.06 0.07 0.08 0.08 0.08 0.10 0.12 0.14 0.17 0.18 0.18 0.16 0.13 0.12 0.12 0.11 0.13 0.15 0.18
0.00 0.01 0.02 0.02 0.02 0.01 0.01 0.02 0.02 0.02 0.02 0.02 0.02 0.02 0.03 0.05 0.07 0.07 0.06 0.05 0.05 0.04 0.04 0.05 0.05 0.06 0.07 0.09 0.10 0.10 0.11 0.11 0.12 0.11 0.11 0.11 0.10 0.09 0.09 0.10 0.11 0.12 0.14 0.15
0.01 0.02 0.03 0.02 0.02 0.02 0.02 0.03 0.03 0.03 0.03 0.04 0.04 0.05 0.06 0.07 0.07 0.10 0.08 0.06 0.04 0.03 0.04 0.05 0.05 0.05 0.06 0.07 0.08 0.10 0.11 0.10 0.10 0.09 0.08 0.07 0.07 0.07 0.08 0.10 0.11 0.12 0.11 0.13
0.03 0.03 0.03 0.02 0.03 0.05 0.04 0.04 0.05 0.04 0.03 0.06 0.06 0.06 0.06 0.07 0.06 0.08 0.07 0.05 0.04 0.03 0.04 0.04 0.04 0.03 0.04 0.06 0.06 0.06 0.06 0.06 0.06 0.05 0.04 0.05 0.08 0.10 0.12 0.13 0.14 0.15 0.16 0.20
0.05 0.05 0.04 0.04 0.05 0.06 0.06 0.05 0.06 0.06 0.05 0.07 0.08 0.08 0.08 0.07 0.07 0.07 0.06 0.06 0.04 0.03 0.03 0.02 0.02 0.02 0.02 0.03 0.04 0.04 0.03 0.02 0.02 0.02 0.02 0.02 0.04 0.05 0.08 0.12 0.12 0.12 0.13 0.13
0.06 0.06 0.06 0.09 0.09 0.08 0.08 0.06 0.07 0.07 0.07 0.08 0.10 0.10 0.10 0.11 0.10 0.08 0.07 0.05 0.03 0.02 0.02 0.01 0.01 0.01 0.02 0.02 0.02 0.02 0.01 0.01 0.01 0.01 0.01 0.01 0.01 0.02 0.02 0.03 0.04 0.04 0.04 0.05
0.09 0.08 0.08 0.15 0.14 0.09 0.08 0.09 0.10 0.12 0.11 0.10 0.10 0.12 0.14 0.15 0.11 0.09 0.07 0.04 0.01 0.01 0.01 0.01 0.01 0.01 0.01 0.01 0.01 0.01 0.00 0.00 0.00 0.00 0.00 0.00 0.01 0.02 0.03 0.04 0.06 0.06 0.05 0.05
0.14 0.15 0.12 0.11 0.12 0.10 0.09 0.12 0.16 0.19 0.17 0.14 0.13 0.12 0.11 0.10 0.10 0.08 0.06 0.03 0.01 0.01 0.00 0.00 0.00 0.00 0.00 0.00 0.00 0.00 0.00 0.00 0.00 0.00 0.00 0.00 0.00 0.01 0.01 0.01 0.03 0.05 0.05 0.05
0.12 0.13 0.15 0.13 0.11 0.12 0.14 0.17 0.17 0.19 0.19 0.16 0.14 0.12 0.11 0.09 0.07 0.04 0.02 0.01 0.01 0.00 0.00 0.00 0.00 0.00 0.00 0.00 0.00 0.00 0.00 0.00 0.00 0.00 0.00 0.00 0.00 0.00 0.00 0.00 0.00 0.01 0.02 0.03

GEFSCGP_prec_meanprec_108.txt.gz
QPF
0.00 0.00 0.00 0.00 0.00 0.00 0.00 0.00 0.00 0.00 0.00 0.00 0.00 0.00 0.00 0.00 0.00 0.00 0.00 0.01 0.02 0.02 0.04 0.05 0.05 0.08 0.12 0.17 0.17 0.17 0.13 0.11 0.08 0.06 0.07 0.09 0.08 0.06 0.06 0.04 0.03 0.01 0.01 0.01
0.00 0.00 0.00 0.00 0.00 0.00 0.00 0.00 0.00 0.00 0.00 0.00 0.00 0.00 0.00 0.00 0.00 0.00 0.00 0.00 0.02 0.02 0.02 0.04 0.04 0.05 0.08 0.11 0.15 0.17 0.14 0.11 0.10 0.10 0.10 0.11 0.10 0.07 0.06 0.04 0.02 0.01 0.01 0.00
0.00 0.00 0.00 0.00 0.00 0.00 0.00 0.00 0.00 0.00 0.00 0.00 0.00 0.00 0.00 0.00 0.00 0.00 0.00 0.00 0.01 0.01 0.02 0.02 0.03 0.04 0.05 0.08 0.12 0.14 0.11 0.11 0.11 0.13 0.12 0.11 0.10 0.09 0.06 0.03 0.02 0.01 0.01 0.00
0.00 0.00 0.00 0.00 0.00 0.00 0.00 0.00 0.00 0.00 0.00 0.00 0.00 0.00 0.00 0.00 0.00 0.00 0.00 0.00 0.00 0.00 0.01 0.01 0.02 0.03 0.05 0.08 0.11 0.14 0.15 0.14 0.14 0.14 0.14 0.12 0.11 0.08 0.05 0.02 0.02 0.02 0.01 0.01
0.00 0.00 0.00 0.00 0.00 0.00 0.00 0.00 0.00 0.00 0.00 0.00 0.00 0.00 0.00 0.00 0.00 0.00 0.00 0.00 0.00 0.00 0.00 0.01 0.01 0.03 0.05 0.06 0.10 0.11 0.14 0.14 0.14 0.13 0.15 0.14 0.12 0.09 0.05 0.03 0.02 0.01 0.01 0.01
0.00 0.00 0.00 0.00 0.00 0.00 0.00 0.00 0.00 0.00 0.00 0.00 0.00 0.00 0.00 0.00 0.00 0.00 0.00 0.00 0.00 0.00 0.00 0.01 0.01 0.02 0.03 0.03 0.07 0.08 0.10 0.10 0.10 0.11 0.13 0.11 0.08 0.07 0.04 0.03 0.02 0.01 0.01 0.00
0.00 0.00 0.00 0.00 0.00 0.00 0.00 0.00 0.00 0.00 0.00 0.00 0.00 0.00 0.00 0.00 0.00 0.00 0.00 0.00 0.00 0.00 0.00 0.00 0.01 0.01 0.03 0.03 0.04 0.05 0.08 0.08 0.08 0.10 0.11 0.10 0.08 0.07 0.05 0.03 0.02 0.02 0.01 0.00
0.00 0.00 0.00 0.00 0.00 0.00 0.00 0.00 0.00 0.00 0.00 0.00 0.00 0.00 0.00 0.00 0.00 0.00 0.00 0.00 0.00 0.00 0.00 0.00 0.01 0.03 0.05 0.04 0.04 0.06 0.07 0.07 0.07 0.09 0.10 0.09 0.08 0.06 0.05 0.04 0.03 0.02 0.01 0.01
0.00 0.00 0.00 0.00 0.00 0.00 0.00 0.00 0.00 0.00 0.00 0.00 0.00 0.00 0.00 0.00 0.00 0.00 0.00 0.00 0.00 0.01 0.01 0.01 0.01 0.02 0.04 0.04 0.04 0.05 0.06 0.07 0.05 0.05 0.06 0.06 0.07 0.07 0.06 0.05 0.04 0.03 0.02 0.01
0.00 0.00 0.00 0.00 0.00 0.00 0.00 0.00 0.00 0.00 0.00 0.00 0.00 0.00 0.00 0.00 0.00 0.00 0.00 0.00 0.00 0.00 0.00 0.01 0.01 0.00 0.02 0.04 0.05 0.05 0.08 0.08 0.06 0.05 0.05 0.05 0.06 0.08 0.09 0.09 0.06 0.04 0.04 0.02
0.00 0.00 0.00 0.00 0.00 0.00 0.00 0.00 0.00 0.00 0.00 0.00 0.00 0.00 0.00 0.00 0.00 0.00 0.00 0.00 0.00 0.00 0.00 0.00 0.00 0.00 0.01 0.03 0.04 0.03 0.06 0.10 0.07 0.06 0.06 0.06 0.06 0.06 0.07 0.09 0.07 0.06 0.07 0.04
0.00 0.00 0.00 0.00 0.00 0.00 0.00 0.00 0.00 0.00 0.00 0.00 0.00 0.00 0.00 0.00 0.00 0.00 0.00 0.00 0.00 0.00 0.00 0.00 0.00 0.00 0.00 0.01 0.01 0.02 0.03 0.08 0.09 0.09 0.09 0.06 0.06 0.06 0.07 0.07 0.07 0.07 0.07 0.07
0.00 0.00 0.00 0.00 0.00 0.00 0.00 0.00 0.00 0.00 0.00 0.00 0.00 0.00 0.00 0.00 0.00 0.00 0.00 0.00 0.00 0.00 0.01 0.00 0.00 0.00 0.01 0.01 0.01 0.02 0.03 0.08 0.14 0.12 0.10 0.09 0.07 0.06 0.07 0.07 0.07 0.07 0.09 0.09
0.00 0.00 0.00 0.00 0.00 0.00 0.00 0.00 0.00 0.00 0.00 0.00 0.00 0.00 0.00 0.00 0.00 0.00 0.00 0.00 0.00 0.00 0.01 0.01 0.01 0.00 0.01 0.01 0.01 0.02 0.04 0.06 0.10 0.11 0.10 0.08 0.07 0.06 0.06 0.06 0.07 0.07 0.09 0.10
0.00 0.00 0.00 0.00 0.00 0.00 0.00 0.00 0.00 0.00 0.00 0.00 0.00 0.00 0.00 0.00 0.00 0.00 0.00 0.00 0.00 0.00 0.01 0.01 0.01 0.01 0.00 0.01 0.01 0.01 0.02 0.05 0.08 0.08 0.10 0.09 0.08 0.07 0.07 0.05 0.06 0.07 0.07 0.09
0.00 0.00 0.00 0.00 0.00 0.00 0.00 0.00 0.00 0.00 0.00 0.00 0.00 0.00 0.00 0.00 0.00 0.00 0.00 0.00 0.00 0.00 0.00 0.00 0.01 0.01 0.01 0.01 0.01 0.01 0.01 0.03 0.04 0.06 0.08 0.07 0.07 0.08 0.08 0.08 0.08 0.07 0.07 0.09
0.00 0.00 0.00 0.00 0.00 0.00 0.00 0.00 0.00 0.00 0.00 0.00 0.00 0.00 0.00 0.00 0.00 0.00 0.00 0.00 0.00 0.01 0.01 0.01 0.01 0.01 0.01 0.01 0.01 0.01 0.02 0.03 0.04 0.05 0.07 0.08 0.07 0.07 0.06 0.07 0.08 0.08 0.08 0.09
0.00 0.01 0.01 0.00 0.00 0.00 0.00 0.00 0.00 0.00 0.00 0.00 0.00 0.00 0.00 0.00 0.00 0.00 0.00 0.00 0.00 0.01 0.01 0.02 0.02 0.02 0.01 0.02 0.02 0.02 0.04 0.04 0.05 0.05 0.06 0.06 0.05 0.06 0.06 0.06 0.06 0.06 0.07 0.09
0.01 0.01 0.02 0.01 0.01 0.00 0.00 0.00 0.00 0.00 0.00 0.00 0.00 0.00 0.00 0.00 0.00 0.01 0.01 0.01 0.01 0.01 0.02 0.03 0.03 0.03 0.02 0.02 0.02 0.02 0.03 0.04 0.05 0.07 0.06 0.06 0.05 0.04 0.05 0.06 0.07 0.08 0.09 0.10
0.01 0.02 0.02 0.02 0.02 0.01 0.00 0.01 0.01 0.01 0.01 0.00 0.01 0.01 0.01 0.01 0.01 0.01 0.01 0.01 0.01 0.01 0.02 0.02 0.03 0.03 0.03 0.03 0.03 0.03 0.04 0.03 0.03 0.04 0.05 0.04 0.04 0.04 0.04 0.05 0.06 0.07 0.06 0.06
0.02 0.02 0.02 0.02 0.02 0.01 0.00 0.01 0.02 0.03 0.02 0.02 0.02 0.02 0.03 0.02 0.02 0.03 0.02 0.02 0.02 0.02 0.02 0.02 0.02 0.03 0.04 0.04 0.03 0.03 0.03 0.03 0.03 0.03 0.03 0.03 0.03 0.04 0.04 0.04 0.04 0.04 0.05 0.05
0.04 0.05 0.04 0.04 0.04 0.03 0.01 0.03 0.05 0.05 0.03 0.03 0.04 0.04 0.04 0.03 0.02 0.02 0.02 0.03 0.03 0.02 0.02 0.02 0.03 0.03 0.03 0.03 0.02 0.02 0.02 0.02 0.02 0.02 0.02 0.01 0.01 0.01 0.02 0.02 0.03 0.02 0.02 0.03
0.05 0.06 0.06 0.05 0.05 0.04 0.05 0.07 0.09 0.09 0.07 0.05 0.05 0.06 0.06 0.05 0.04 0.03 0.03 0.03 0.02 0.02 0.01 0.01 0.01 0.01 0.01 0.01 0.02 0.02 0.02 0.02 0.01 0.01 0.01 0.01 0.01 0.01 0.01 0.01 0.01 0.01 0.01 0.01
0.07 0.07 0.09 0.08 0.06 0.07 0.08 0.08 0.08 0.08 0.09 0.09 0.08 0.09 0.08 0.08 0.06 0.06 0.05 0.04 0.03 0.02 0.01 0.01 0.01 0.00 0.00 0.01 0.01 0.01 0.02 0.02 0.02 0.01 0.01 0.01 0.00 0.00 0.00 0.00 0.00 0.01 0.01 0.01
0.07 0.10 0.11 0.09 0.08 0.10 0.09 0.09 0.09 0.11 0.11 0.10 0.10 0.13 0.13 0.10 0.08 0.07 0.06 0.05 0.05 0.03 0.02 0.01 0.01 0.00 0.00 0.00 0.01 0.01 0.01 0.00 0.01 0.01 0.01 0.01 0.01 0.00 0.00 0.00 0.00 0.00 0.00 0.01
0.09 0.13 0.14 0.14 0.15 0.16 0.13 0.11 0.11 0.16 0.16 0.12 0.11 0.14 0.15 0.11 0.09 0.06 0.04 0.03 0.03 0.02 0.02 0.01 0.01 0.01 0.01 0.00 0.00 0.00 0.00 0.00 0.00 0.00 0.00 0.00 0.00 0.00 0.00 0.00 0.00 0.00 0.00 0.01

GEFSCGP_prec_meanprec_114.txt.gz
QPF
0.00 0.00 0.00 0.00 0.00 0.00 0.00 0.00 0.00 0.00 0.00 0.00 0.00 0.00 0.00 0.01 0.00 0.00 0.00 0.01 0.03 0.04 0.04 0.06 0.09 0.11 0.13 0.18 0.20 0.22 0.20 0.20 0.20 0.18 0.13 0.12 0.09 0.08 0.06 0.05 0.03 0.02 0.02 0.02
0.00 0.00 0.00 0.00 0.00 0.00 0.00 0.00 0.00 0.00 0.00 0.00 0.00 0.00 0.00 0.01 0.00 0.00 0.00 0.01 0.02 0.03 0.04 0.07 0.09 0.09 0.11 0.12 0.13 0.16 0.18 0.17 0.17 0.17 0.15 0.14 0.13 0.07 0.04 0.04 0.04 0.02 0.02 0.01
0.00 0.00 0.00 0.00 0.00 0.00 0.00 0.00 0.00 0.00 0.00 0.00 0.00 0.01 0.01 0.02 0.01 0.00 0.00 0.00 0.01 0.01 0.03 0.03 0.05 0.07 0.09 0.11 0.10 0.12 0.15 0.15 0.18 0.20 0.17 0.17 0.19 0.15 0.09 0.05 0.04 0.03 0.02 0.01
0.00 0.00 0.00 0.00 0.00 0.00 0.00 0.00 0.00 0.00 0.00 0.00 0.01 0.02 0.04 0.04 0.04 0.03 0.01 0.01 0.01 0.01 0.03 0.04 0.04 0.06 0.06 0.07 0.08 0.12 0.14 0.16 0.17 0.19 0.17 0.14 0.10 0.11 0.09 0.05 0.04 0.03 0.02 0.01
0.00 0.00 0.00 0.00 0.00 0.00 0.00 0.00 0.00 0.00 0.00 0.00 0.01 0.02 0.05 0.06 0.08 0.05 0.01 0.00 0.00 0.00 0.01 0.03 0.04 0.04 0.06 0.07 0.08 0.10 0.13 0.15 0.15 0.15 0.16 0.19 0.16 0.12 0.08 0.08 0.06 0.05 0.02 0.01
0.00 0.00 0.00 0.00 0.00 0.00 0.00 0.00 0.00 0.00 0.00 0.01 0.02 0.03 0.06 0.04 0.03 0.01 0.00 0.00 0.00 0.00 0.01 0.03 0.04 0.05 0.05 0.05 0.06 0.09 0.12 0.13 0.14 0.14 0.13 0.17 0.16 0.14 0.13 0.10 0.07 0.04 0.02 0.01
0.00 0.00 0.00 0.00 0.00 0.00 0.00 0.00 0.00 0.02 0.06 0.06 0.05 0.05 0.03 0.01 0.00 0.00 0.00 0.00 0.00 0.00 0.01 0.02 0.04 0.04 0.04 0.04 0.05 0.08 0.10 0.10 0.11 0.11 0.12 0.14 0.17 0.16 0.15 0.11 0.08 0.05 0.02 0.02
0.00 0.00 0.00 0.00 0.00 0.00 0.00 0.00 0.00 0.02 0.05 0.08 0.05 0.04 0.02 0.00 0.00 0.00 0.00 0.00 0.00 0.01 0.02 0.02 0.02 0.02 0.02 0.02 0.04 0.08 0.09 0.08 0.09 0.11 0.12 0.12 0.16 0.14 0.12 0.12 0.10 0.06 0.04 0.02
0.00 0.00 0.00 0.00 0.00 0.00 0.00 0.00 0.00 0.00 0.00 0.02 0.03 0.03 0.04 0.02 0.00 0.00 0.00 0.00 0.00 0.00 0.01 0.02 0.01 0.01 0.02 0.02 0.03 0.07 0.08 0.07 0.07 0.11 0.12 0.10 0.11 0.13 0.14 0.11 0.09 0.06 0.05 0.04
0.00 0.00 0.00 0.00 0.00 0.00 0.00 0.00 0.00 0.00 0.01 0.02 0.04 0.04 0.07 0.03 0.01 0.00 0.00 0.00 0.00 0.01 0.02 0.01 0.00 0.00 0.01 0.02 0.03 0.07 0.08 0.07 0.07 0.09 0.11 0.08 0.09 0.10 0.15 0.13 0.09 0.08 0.07 0.05
0.00 0.00 0.00 0.00 0.00 0.00 0.00 0.00 0.00 0.00 0.00 0.01 0.05 0.09 0.08 0.04 0.02 0.00 0.00 0.00 0.00 0.00 0.02 0.00 0.00 0.00 0.00 0.01 0.03 0.05 0.07 0.07 0.08 0.10 0.13 0.13 0.12 0.11 0.12 0.12 0.11 0.09 0.09 0.08
0.00 0.00 0.00 0.00 0.00 0.00 0.00 0.00 0.00 0.00 0.00 0.00 0.02 0.04 0.03 0.05 0.06 0.02 0.00 0.00 0.00 0.00 0.02 0.00 0.00 0.00 0.00 0.01 0.02 0.04 0.04 0.05 0.07 0.10 0.12 0.14 0.13 0.13 0.11 0.11 0.11 0.09 0.09 0.11
0.00 0.00 0.00 0.00 0.00 0.00 0.00 0.00 0.00 0.00 0.00 0.00 0.02 0.03 0.03 0.05 0.06 0.03 0.01 0.00 0.00 0.01 0.02 0.00 0.00 0.00 0.00 0.01 0.02 0.03 0.04 0.05 0.08 0.11 0.11 0.14 0.16 0.14 0.13 0.13 0.13 0.12 0.12 0.12
0.00 0.00 0.00 0.00 0.00 0.01 0.01 0.00 0.00 0.00 0.00 0.00 0.00 0.02 0.04 0.04 0.03 0.04 0.02 0.00 0.00 0.01 0.02 0.01 0.00 0.00 0.01 0.02 0.03 0.04 0.05 0.05 0.06 0.09 0.13 0.14 0.15 0.14 0.13 0.13 0.13 0.12 0.12 0.11
0.00 0.00 0.00 0.00 0.00 0.02 0.04 0.03 0.01 0.01 0.00 0.00 0.00 0.02 0.04 0.04 0.03 0.05 0.04 0.02 0.01 0.01 0.02 0.02 0.01 0.01 0.01 0.02 0.03 0.04 0.05 0.07 0.08 0.10 0.12 0.13 0.16 0.14 0.13 0.12 0.12 0.12 0.11 0.10
0.00 0.00 0.00 0.00 0.00 0.00 0.01 0.02 0.01 0.01 0.00 0.00 0.00 0.02 0.05 0.04 0.02 0.03 0.03 0.05 0.03 0.01 0.01 0.02 0.01 0.01 0.01 0.02 0.03 0.04 0.06 0.07 0.08 0.10 0.11 0.12 0.14 0.13 0.13 0.14 0.15 0.16 0.14 0.15
0.00 0.01 0.01 0.00 0.00 0.00 0.01 0.01 0.00 0.00 0.00 0.00 0.00 0.01 0.03 0.04 0.04 0.02 0.01 0.03 0.03 0.01 0.02 0.01 0.01 0.01 0.01 0.02 0.02 0.02 0.04 0.06 0.08 0.10 0.12 0.15 0.17 0.17 0.17 0.18 0.22 0.21 0.21 0.20
0.00 0.02 0.02 0.01 0.01 0.01 0.00 0.00 0.00 0.00 0.00 0.00 0.00 0.01 0.03 0.03 0.06 0.05 0.03 0.04 0.04 0.02 0.01 0.02 0.02 0.02 0.02 0.02 0.03 0.05 0.07 0.10 0.10 0.12 0.14 0.17 0.19 0.21 0.22 0.21 0.20 0.17 0.17 0.17
0.01 0.02 0.02 0.02 0.02 0.02 0.02 0.01 0.00 0.00 0.00 0.00 0.00 0.01 0.03 0.04 0.04 0.05 0.03 0.06 0.04 0.01 0.01 0.01 0.02 0.04 0.04 0.05 0.05 0.06 0.07 0.09 0.09 0.11 0.13 0.16 0.17 0.17 0.15 0.14 0.14 0.13 0.13 0.12
0.03 0.05 0.05 0.03 0.03 0.02 0.03 0.02 0.01 0.00 0.01 0.03 0.03 0.03 0.03 0.06 0.06 0.04 0.03 0.02 0.02 0.02 0.02 0.02 0.02 0.04 0.05 0.05 0.05 0.06 0.07 0.08 0.08 0.09 0.10 0.13 0.14 0.13 0.11 0.10 0.11 0.11 0.10 0.08
0.06 0.06 0.06 0.05 0.05 0.02 0.02 0.01 0.01 0.03 0.05 0.03 0.02 0.03 0.04 0.07 0.09 0.08 0.05 0.03 0.02 0.03 0.03 0.03 0.04 0.06 0.07 0.07 0.09 0.09 0.09 0.08 0.08 0.10 0.11 0.13 0.15 0.14 0.13 0.11 0.09 0.08 0.07 0.06
0.04 0.05 0.06 0.06 0.06 0.05 0.03 0.01 0.03 0.05 0.02 0.01 0.03 0.04 0.08 0.09 0.08 0.07 0.06 0.05 0.04 0.04 0.04 0.04 0.06 0.07 0.08 0.08 0.08 0.09 0.09 0.07 0.07 0.08 0.08 0.09 0.11 0.12 0.10 0.09 0.07 0.07 0.06 0.04
0.03 0.05 0.05 0.05 0.05 0.06 0.03 0.03 0.02 0.01 0.01 0.05 0.07 0.08 0.12 0.13 0.10 0.06 0.06 0.07 0.09 0.07 0.05 0.04 0.05 0.06 0.06 0.06 0.06 0.06 0.05 0.05 0.04 0.04 0.05 0.05 0.04 0.04 0.05 0.04 0.04 0.04 0.03 0.03
0.04 0.05 0.05 0.04 0.04 0.05 0.07 0.07 0.04 0.03 0.03 0.08 0.13 0.16 0.15 0.13 0.09 0.05 0.05 0.05 0.08 0.07 0.04 0.03 0.03 0.04 0.04 0.04 0.04 0.04 0.04 0.04 0.03 0.03 0.03 0.03 0.03 0.02 0.02 0.02 0.02 0.01 0.02 0.02
0.05 0.06 0.08 0.07 0.05 0.05 0.05 0.05 0.05 0.06 0.08 0.10 0.14 0.19 0.22 0.15 0.10 0.08 0.07 0.06 0.06 0.06 0.04 0.03 0.03 0.03 0.02 0.02 0.02 0.02 0.02 0.02 0.02 0.02 0.01 0.01 0.02 0.02 0.02 0.01 0.01 0.01 0.01 0.01
0.06 0.05 0.09 0.11 0.07 0.06 0.07 0.08 0.09 0.10 0.12 0.15 0.16 0.23 0.23 0.14 0.09 0.08 0.07 0.06 0.06 0.05 0.03 0.03 0.03 0.03 0.02 0.01 0.01 0.01 0.01 0.01 0.01 0.00 0.00 0.00 0.00 0.00 0.00 0.00 0.00 0.00 0.00 0.00

GEFSCGP_prec_meanprec_120.txt.gz
QPF
0.00 0.00 0.00 0.00 0.00 0.00 0.00 0.00 0.00 0.00 0.01 0.01 0.01 0.01 0.02 0.03 0.03 0.03 0.06 0.08 0.07 0.07 0.07 0.10 0.17 0.15 0.14 0.17 0.21 0.22 0.18 0.15 0.14 0.12 0.14 0.16 0.14 0.15 0.12 0.06 0.03 0.02 0.02 0.01
0.00 0.00 0.00 0.00 0.00 0.00 0.00 0.00 0.00 0.00 0.00 0.00 0.01 0.02 0.02 0.02 0.03 0.05 0.06 0.07 0.07 0.08 0.09 0.13 0.18 0.16 0.13 0.17 0.23 0.25 0.22 0.16 0.13 0.14 0.18 0.18 0.17 0.16 0.16 0.11 0.06 0.03 0.01 0.01
0.00 0.00 0.00 0.00 0.00 0.00 0.00 0.00 0.00 0.00 0.00 0.01 0.01 0.03 0.03 0.03 0.05 0.07 0.07 0.07 0.06 0.08 0.12 0.15 0.15 0.14 0.11 0.12 0.13 0.17 0.19 0.16 0.13 0.17 0.21 0.22 0.24 0.22 0.20 0.11 0.06 0.04 0.02 0.02
0.00 0.00 0.00 0.00 0.00 0.00 0.00 0.00 0.00 0.00 0.00 0.00 0.00 0.02 0.04 0.04 0.05 0.09 0.07 0.07 0.08 0.08 0.14 0.13 0.11 0.11 0.08 0.07 0.08 0.10 0.13 0.13 0.12 0.13 0.16 0.17 0.16 0.14 0.11 0.10 0.06 0.05 0.04 0.03
0.00 0.00 0.00 0.00 0.00 0.00 0.00 0.00 0.00 0.00 0.00 0.00 0.01 0.02 0.07 0.06 0.05 0.07 0.07 0.07 0.05 0.06 0.13 0.08 0.05 0.07 0.07 0.05 0.05 0.07 0.11 0.14 0.13 0.14 0.12 0.12 0.12 0.13 0.14 0.15 0.12 0.08 0.05 0.04
0.00 0.00 0.00 0.00 0.00 0.00 0.00 0.00 0.00 0.00 0.00 0.00 0.01 0.03 0.08 0.10 0.05 0.05 0.05 0.05 0.04 0.03 0.04 0.05 0.05 0.07 0.11 0.07 0.05 0.06 0.08 0.10 0.12 0.14 0.13 0.13 0.12 0.13 0.14 0.15 0.12 0.09 0.05 0.03
0.00 0.00 0.00 0.00 0.00 0.00 0.00 0.00 0.00 0.00 0.00 0.01 0.02 0.05 0.08 0.12 0.09 0.07 0.07 0.05 0.03 0.02 0.03 0.04 0.04 0.07 0.10 0.07 0.05 0.05 0.07 0.06 0.08 0.09 0.10 0.13 0.11 0.11 0.10 0.11 0.12 0.09 0.04 0.02
0.00 0.00 0.00 0.00 0.00 0.00 0.00 0.00 0.00 0.00 0.00 0.01 0.03 0.07 0.13 0.09 0.06 0.05 0.06 0.05 0.03 0.03 0.03 0.04 0.04 0.05 0.06 0.06 0.04 0.04 0.05 0.06 0.06 0.06 0.06 0.09 0.11 0.09 0.07 0.06 0.07 0.07 0.04 0.02
0.00 0.00 0.00 0.00 0.00 0.00 0.00 0.00 0.00 0.00 0.01 0.02 0.06 0.10 0.13 0.09 0.07 0.06 0.06 0.06 0.05 0.03 0.03 0.04 0.04 0.03 0.03 0.03 0.02 0.02 0.03 0.05 0.05 0.05 0.06 0.05 0.09 0.09 0.05 0.06 0.05 0.06 0.06 0.03
0.00 0.00 0.00 0.00 0.00 0.00 0.00 0.00 0.00 0.00 0.00 0.02 0.06 0.09 0.14 0.15 0.11 0.10 0.08 0.08 0.06 0.04 0.03 0.03 0.02 0.02 0.01 0.01 0.02 0.02 0.03 0.04 0.06 0.07 0.09 0.07 0.07 0.10 0.10 0.09 0.08 0.08 0.09 0.06
0.00 0.00 0.00 0.00 0.00 0.00 0.00 0.00 0.00 0.00 0.00 0.02 0.04 0.05 0.06 0.08 0.11 0.13 0.11 0.09 0.07 0.05 0.04 0.03 0.02 0.01 0.01 0.01 0.02 0.02 0.03 0.05 0.07 0.08 0.10 0.11 0.10 0.08 0.12 0.13 0.14 0.13 0.15 0.11
0.00 0.00 0.00 0.00 0.00 0.00 0.00 0.00 0.00 0.00 0.00 0.01 0.03 0.04 0.07 0.11 0.14 0.15 0.13 0.11 0.08 0.06 0.05 0.05 0.04 0.03 0.02 0.02 0.02 0.03 0.04 0.05 0.06 0.07 0.09 0.11 0.16 0.11 0.12 0.15 0.17 0.16 0.18 0.17
0.00 0.00 0.00 0.00 0.00 0.00 0.00 0.00 0.00 0.01 0.01 0.01 0.03 0.05 0.09 0.10 0.09 0.12 0.12 0.12 0.10 0.09 0.08 0.06 0.09 0.08 0.04 0.03 0.04 0.05 0.07 0.07 0.08 0.09 0.11 0.11 0.16 0.17 0.14 0.18 0.18 0.17 0.19 0.21
0.00 0.00 0.00 0.00 0.00 0.00 0.00 0.01 0.01 0.01 0.01 0.01 0.02 0.04 0.05 0.06 0.06 0.12 0.17 0.14 0.14 0.12 0.09 0.06 0.05 0.06 0.05 0.06 0.08 0.09 0.16 0.13 0.08 0.10 0.11 0.12 0.14 0.17 0.17 0.20 0.23 0.23 0.24 0.23
0.00 0.00 0.00 0.00 0.00 0.00 0.00 0.00 0.01 0.01 0.01 0.01 0.01 0.03 0.05 0.05 0.09 0.11 0.13 0.14 0.16 0.11 0.07 0.05 0.05 0.05 0.09 0.10 0.11 0.12 0.10 0.13 0.14 0.20 0.18 0.16 0.18 0.23 0.25 0.27 0.28 0.23 0.20 0.20
0.00 0.00 0.00 0.00 0.00 0.00 0.00 0.00 0.00 0.01 0.01 0.00 0.01 0.02 0.03 0.04 0.04 0.08 0.07 0.09 0.10 0.09 0.06 0.04 0.05 0.04 0.04 0.04 0.06 0.08 0.07 0.07 0.13 0.19 0.19 0.19 0.20 0.24 0.30 0.32 0.32 0.28 0.22 0.21
0.00 0.00 0.00 0.00 0.00 0.00 0.01 0.01 0.01 0.01 0.01 0.01 0.02 0.03 0.03 0.04 0.04 0.08 0.10 0.11 0.13 0.08 0.06 0.06 0.05 0.04 0.02 0.02 0.03 0.04 0.04 0.05 0.09 0.13 0.15 0.16 0.18 0.21 0.28 0.33 0.31 0.28 0.25 0.25
0.00 0.00 0.00 0.00 0.00 0.01 0.01 0.02 0.02 0.02 0.03 0.03 0.04 0.04 0.03 0.03 0.05 0.09 0.14 0.12 0.15 0.16 0.10 0.06 0.06 0.05 0.03 0.03 0.03 0.06 0.08 0.09 0.10 0.10 0.12 0.14 0.14 0.14 0.17 0.20 0.21 0.22 0.23 0.21
0.00 0.00 0.01 0.01 0.01 0.01 0.01 0.01 0.01 0.03 0.07 0.07 0.05 0.04 0.04 0.05 0.06 0.10 0.14 0.12 0.10 0.12 0.12 0.06 0.04 0.04 0.04 0.04 0.05 0.07 0.09 0.09 0.08 0.09 0.11 0.13 0.13 0.14 0.16 0.18 0.21 0.20 0.18 0.16
0.01 0.01 0.02 0.02 0.02 0.01 0.02 0.01 0.01 0.02 0.08 0.10 0.09 0.08 0.08 0.09 0.12 0.10 0.11 0.11 0.12 0.10 0.09 0.08 0.06 0.05 0.05 0.04 0.05 0.06 0.08 0.09 0.10 0.11 0.12 0.13 0.14 0.13 0.15 0.15 0.15 0.14 0.14 0.13
0.01 0.02 0.03 0.03 0.03 0.02 0.01 0.01 0.01 0.04 0.08 0.08 0.09 0.12 0.11 0.11 0.14 0.11 0.13 0.16 0.14 0.13 0.11 0.10 0.11 0.09 0.08 0.09 0.09 0.10 0.12 0.13 0.13 0.14 0.14 0.13 0.13 0.15 0.17 0.16 0.13 0.12 0.12 0.10
0.02 0.02 0.03 0.04 0.04 0.04 0.02 0.02 0.02 0.05 0.06 0.10 0.11 0.11 0.11 0.12 0.12 0.12 0.13 0.22 0.21 0.16 0.16 0.16 0.18 0.18 0.13 0.11 0.12 0.12 0.11 0.11 0.12 0.13 0.14 0.14 0.12 0.13 0.14 0.13 0.12 0.11 0.09 0.07
0.04 0.03 0.04 0.04 0.05 0.03 0.03 0.04 0.03 0.05 0.06 0.08 0.12 0.14 0.11 0.11 0.10 0.08 0.07 0.10 0.18 0.24 0.24 0.25 0.24 0.21 0.16 0.13 0.11 0.11 0.10 0.09 0.09 0.08 0.08 0.08 0.08 0.07 0.06 0.08 0.09 0.10 0.09 0.09
0.05 0.04 0.05 0.07 0.07 0.04 0.03 0.03 0.04 0.05 0.07 0.05 0.08 0.11 0.12 0.12 0.12 0.09 0.06 0.05 0.07 0.11 0.15 0.20 0.22 0.21 0.19 0.17 0.15 0.12 0.09 0.07 0.07 0.07 0.06 0.04 0.03 0.02 0.03 0.03 0.05 0.07 0.06 0.06
0.07 0.06 0.06 0.09 0.09 0.06 0.06 0.08 0.10 0.07 0.07 0.05 0.07 0.08 0.10 0.11 0.11 0.09 0.07 0.06 0.06 0.06 0.07 0.09 0.11 0.11 0.10 0.10 0.08 0.07 0.06 0.05 0.04 0.02 0.02 0.02 0.02 0.01 0.01 0.02 0.02 0.02 0.03 0.03
0.04 0.04 0.06 0.08 0.08 0.08 0.08 0.10 0.10 0.08 0.08 0.07 0.08 0.09 0.08 0.13 0.10 0.07 0.05 0.04 0.05 0.06 0.06 0.07 0.08 0.08 0.08 0.07 0.06 0.05 0.05 0.04 0.03 0.02 0.01 0.01 0.01 0.00 0.00 0.00 0.00 0.00 0.00 0.00